| time (UTC) | temp F | wind direction | speed knots | gust knots | rain 1hr in | rain 24hr in | rain mn in | humidity % | barometer mb |
| 20260507114524 | 69 | 142 | 4.3 | 8.7 | 0.00 | 0.09 | 0.06 | 51 | 1012.9 |
| 20260507113603 | 68 | 246 | 3.5 | 9.6 | 0.00 | 0.09 | 0.06 | 51 | 1012.7 |
| 20260507112703 | 70 | 187 | 2.6 | 6.1 | 0.00 | 0.09 | 0.06 | 52 | 1012.8 |
| 20260507111804 | 67 | 249 | 2.6 | 7.8 | 0.00 | 0.09 | 0.06 | 56 | 1012.9 |
| 20260507110903 | 68 | 277 | 1.7 | 7.0 | 0.00 | 0.09 | 0.06 | 57 | 1013.1 |
| 20260507110003 | 68 | 129 | 1.7 | 4.3 | 0.00 | 0.09 | 0.06 | 56 | 1012.9 |
| 20260507105404 | 66 | 196 | 2.6 | 5.2 | 0.00 | 0.09 | 0.06 | 58 | 1013.2 |
| 20260507104503 | 67 | 114 | 2.6 | 5.2 | 0.00 | 0.09 | 0.06 | 59 | 1013.0 |
| 20260507103606 | 66 | 57 | 2.6 | 5.2 | 0.00 | 0.09 | 0.06 | 59 | 1013.2 |
| 20260507102704 | 66 | 227 | 2.6 | 5.2 | 0.00 | 0.09 | 0.06 | 61 | 1013.4 |
| 20260507101803 | 65 | 238 | 4.3 | 9.6 | 0.00 | 0.09 | 0.06 | 63 | 1013.6 |
| 20260507100903 | 65 | 240 | 4.3 | 10.4 | 0.00 | 0.09 | 0.06 | 67 | 1013.4 |
| 20260507100003 | 64 | 289 | 1.7 | 6.1 | 0.00 | 0.09 | 0.06 | 64 | 1013.3 |
| 20260507095403 | 65 | 254 | 2.6 | 7.0 | 0.00 | 0.09 | 0.06 | 66 | 1013.4 |
| 20260507094503 | 67 | 182 | 3.5 | 7.0 | 0.00 | 0.09 | 0.06 | 63 | 1013.5 |
| 20260507093603 | 67 | 200 | 3.5 | 6.1 | 0.00 | 0.09 | 0.06 | 64 | 1013.6 |
| 20260507092706 | 67 | 143 | 2.6 | 5.2 | 0.00 | 0.09 | 0.06 | 61 | 1013.6 |
| 20260507091803 | 66 | 99 | 2.6 | 5.2 | 0.00 | 0.09 | 0.06 | 65 | 1013.7 |
| 20260507090903 | 65 | 112 | 2.6 | 4.3 | 0.00 | 0.09 | 0.06 | 66 | 1013.6 |
| 20260507090004 | 62 | 145 | 2.6 | 7.0 | 0.00 | 0.09 | 0.06 | 70 | 1013.7 |
| 20260507085406 | 63 | 79 | 2.6 | 6.1 | 0.00 | 0.09 | 0.06 | 71 | 1013.7 |
| 20260507084505 | 64 | 109 | 3.5 | 7.0 | 0.00 | 0.09 | 0.06 | 69 | 1013.7 |
| 20260507083603 | 64 | 131 | 3.5 | 6.1 | 0.00 | 0.09 | 0.06 | 69 | 1013.3 |
| 20260507082703 | 61 | 167 | 1.7 | 5.2 | 0.00 | 0.09 | 0.06 | 72 | 1013.7 |
| 20260507081803 | 63 | 146 | 4.3 | 8.7 | 0.00 | 0.09 | 0.06 | 72 | 1013.7 |
| 20260507080903 | 63 | 173 | 2.6 | 5.2 | 0.00 | 0.09 | 0.06 | 70 | 1013.8 |
| 20260507080003 | 63 | 160 | 3.5 | 5.2 | 0.00 | 0.09 | 0.06 | 71 | 1013.7 |
| 20260507075403 | 62 | 145 | 3.5 | 7.0 | 0.00 | 0.09 | 0.06 | 73 | 1013.7 |
| 20260507074503 | 62 | 134 | 3.5 | 7.0 | 0.00 | 0.09 | 0.06 | 74 | 1013.7 |
| 20260507073603 | 60 | 146 | 4.3 | 7.0 | 0.00 | 0.09 | 0.06 | 77 | 1013.9 |
| 20260507072718 | 58 | 163 | 3.5 | 7.0 | 0.00 | 0.09 | 0.06 | 81 | 1013.9 |
| 20260507071803 | 59 | 160 | 4.3 | 7.8 | 0.00 | 0.09 | 0.06 | 83 | 1013.5 |
| 20260507070903 | 59 | 148 | 3.5 | 6.1 | 0.00 | 0.09 | 0.06 | 84 | 1013.7 |
| 20260507070005 | 59 | 149 | 3.5 | 8.7 | 0.00 | 0.09 | 0.06 | 83 | 1013.9 |
| 20260507065403 | 59 | 143 | 4.3 | 7.8 | 0.00 | 0.09 | 0.06 | 82 | 1013.7 |
| 20260507064504 | 59 | 145 | 3.5 | 7.0 | 0.00 | 0.09 | 0.06 | 82 | 1013.7 |
| 20260507063606 | 59 | 155 | 2.6 | 5.2 | 0.00 | 0.09 | 0.06 | 81 | 1013.5 |
| 20260507062704 | 59 | 150 | 2.6 | 4.3 | 0.00 | 0.10 | 0.06 | 82 | 1013.6 |
| 20260507061804 | 58 | 137 | 2.6 | 5.2 | 0.00 | 0.10 | 0.06 | 87 | 1013.5 |
| 20260507060905 | 57 | 91 | 2.6 | 3.5 | 0.00 | 0.11 | 0.06 | 88 | 1013.5 |
| 20260507060003 | 57 | 89 | 2.6 | 4.3 | 0.00 | 0.11 | 0.06 | 88 | 1013.4 |
| 20260507055403 | 57 | 90 | 2.6 | 4.3 | 0.00 | 0.11 | 0.06 | 88 | 1013.4 |
| 20260507054505 | 57 | 103 | 2.6 | 4.3 | 0.00 | 0.12 | 0.06 | 89 | 1013.6 |
| 20260507053603 | 57 | 123 | 4.3 | 7.0 | 0.00 | 0.12 | 0.06 | 89 | 1013.3 |
| 20260507052704 | 57 | 140 | 4.3 | 6.1 | 0.00 | 0.13 | 0.06 | 90 | 1013.2 |
| 20260507051824 | 56 | 108 | 3.5 | 6.1 | 0.00 | 0.13 | 0.06 | 90 | 1013.3 |
| 20260507050903 | 56 | 117 | 2.6 | 4.3 | 0.00 | 0.13 | 0.06 | 93 | 1013.2 |
| 20260507050024 | 56 | 130 | 1.7 | 2.6 | 0.00 | 0.13 | 0.06 | 92 | 1013.3 |
| 20260507045403 | 56 | 162 | 1.7 | 3.5 | 0.00 | 0.13 | 0.06 | 93 | 1013.2 |
| 20260507044504 | 56 | 155 | 1.7 | 2.6 | 0.00 | 0.14 | 0.06 | 93 | 1013.0 |
| 20260507043603 | 56 | 139 | 1.7 | 2.6 | 0.00 | 0.15 | 0.06 | 93 | 1012.9 |
| 20260507042703 | 56 | 137 | 1.7 | 3.5 | 0.00 | 0.15 | 0.06 | 92 | 1013.0 |
| 20260507041803 | 56 | 136 | 3.5 | 5.2 | 0.00 | 0.16 | 0.06 | 92 | 1012.8 |
| 20260507040903 | 57 | 118 | 2.6 | 5.2 | 0.00 | 0.15 | 0.06 | 92 | 1012.8 |
| 20260507040003 | 57 | 96 | 2.6 | 5.2 | 0.00 | 0.15 | 0.06 | 92 | 1012.8 |
| 20260507035403 | 56 | 91 | 1.7 | 3.5 | 0.00 | 0.15 | 0.06 | 91 | 1012.7 |
| 20260507034503 | 56 | 176 | 1.7 | 3.5 | 0.00 | 0.15 | 0.06 | 91 | 1012.6 |
| 20260507033606 | 56 | 152 | 3.5 | 6.1 | 0.00 | 0.15 | 0.06 | 91 | 1012.5 |
| 20260507032703 | 57 | 136 | 4.3 | 6.1 | 0.01 | 0.15 | 0.06 | 91 | 1012.3 |
| 20260507031803 | 57 | 139 | 3.5 | 5.2 | 0.01 | 0.15 | 0.06 | 90 | 1012.4 |
| 20260507030924 | 57 | 155 | 3.5 | 5.2 | 0.01 | 0.15 | 0.06 | 90 | 1012.6 |
| 20260507030003 | 57 | 182 | 2.6 | 5.2 | 0.01 | 0.15 | 0.06 | 90 | 1012.8 |
| 20260507025404 | 57 | 157 | 3.5 | 6.1 | 0.01 | 0.15 | 0.06 | 90 | 1012.7 |
| 20260507024503 | 57 | 147 | 4.3 | 6.1 | 0.00 | 0.15 | 0.06 | 89 | 1012.5 |
| 20260507023603 | 57 | 151 | 4.3 | 7.8 | 0.01 | 0.15 | 0.06 | 89 | 1012.6 |
| 20260507022703 | 57 | 149 | 3.5 | 7.8 | 0.01 | 0.15 | 0.05 | 90 | 1012.6 |
| 20260507021804 | 57 | 149 | 1.7 | 3.5 | 0.01 | 0.15 | 0.05 | 91 | 1012.5 |
| 20260507020903 | 57 | 158 | 1.7 | 2.6 | 0.01 | 0.15 | 0.05 | 91 | 1012.7 |
| 20260507020024 | 57 | 135 | 1.7 | 3.5 | 0.01 | 0.15 | 0.05 | 90 | 1012.3 |
| 20260507015403 | 57 | 116 | 1.7 | 4.3 | 0.01 | 0.18 | 0.05 | 90 | 1012.4 |
| 20260507014503 | 58 | 118 | 3.5 | 7.8 | 0.02 | 0.18 | 0.05 | 90 | 1012.3 |
| 20260507013606 | 58 | 128 | 4.3 | 7.0 | 0.01 | 0.17 | 0.05 | 90 | 1012.2 |
| 20260507012703 | 58 | 129 | 4.3 | 7.8 | 0.01 | 0.17 | 0.04 | 90 | 1012.3 |
| 20260507011805 | 58 | 124 | 3.5 | 6.1 | 0.00 | 0.17 | 0.04 | 89 | 1012.6 |
| 20260507010904 | 58 | 141 | 4.3 | 7.0 | 0.00 | 0.17 | 0.04 | 89 | 1012.6 |
| 20260507010003 | 58 | 147 | 4.3 | 7.0 | 0.00 | 0.17 | 0.04 | 89 | 1012.5 |
| 20260507005403 | 58 | 152 | 3.5 | 5.2 | 0.00 | 0.17 | 0.04 | 89 | 1012.4 |
| 20260507004503 | 58 | 124 | 4.3 | 7.8 | 0.00 | 0.16 | 0.04 | 89 | 1012.5 |
| 20260507003618 | 58 | 100 | 3.5 | 7.8 | 0.00 | 0.16 | 0.04 | 89 | 1012.4 |
| 20260507002705 | 58 | 117 | 3.5 | 5.2 | 0.00 | 0.16 | 0.04 | 89 | 1012.2 |
| 20260507001824 | 58 | 140 | 3.5 | 6.1 | 0.01 | 0.16 | 0.04 | 90 | 1012.6 |
| 20260507000924 | 58 | 153 | 3.5 | 6.1 | 0.01 | 0.16 | 0.04 | 90 | 1012.4 |
| 20260507000003 | 58 | 172 | 2.6 | 5.2 | 0.02 | 0.16 | 0.04 | 88 | 1012.4 |
| 20260506235403 | 58 | 157 | 3.5 | 7.8 | 0.02 | 0.16 | 0.04 | 88 | 1012.7 |
| 20260506234503 | 58 | 136 | 3.5 | 7.0 | 0.02 | 0.16 | 0.04 | 88 | 1012.7 |
| 20260506233603 | 58 | 128 | 3.5 | 6.1 | 0.02 | 0.16 | 0.04 | 88 | 1012.6 |
| 20260506232703 | 58 | 143 | 3.5 | 7.8 | 0.02 | 0.16 | 0.03 | 88 | 1012.6 |
| 20260506231804 | 58 | 132 | 4.3 | 7.8 | 0.02 | 0.15 | 0.03 | 90 | 1012.6 |
| 20260506230903 | 58 | 111 | 4.3 | 6.1 | 0.02 | 0.15 | 0.02 | 89 | 1012.9 |
| 20260506230003 | 59 | 104 | 3.5 | 5.2 | 0.02 | 0.15 | 0.02 | 88 | 1012.7 |
| 20260506225403 | 59 | 101 | 1.7 | 3.5 | 0.02 | 0.15 | 0.02 | 86 | 1013.1 |
| 20260506224503 | 59 | 117 | 2.6 | 5.2 | 0.03 | 0.15 | 0.02 | 84 | 1012.7 |
| 20260506223603 | 59 | 124 | 3.5 | 5.2 | 0.04 | 0.15 | 0.02 | 83 | 1012.6 |
| 20260506222703 | 59 | 109 | 3.5 | 5.2 | 0.04 | 0.14 | 0.01 | 82 | 1012.8 |
| 20260506221803 | 59 | 109 | 3.5 | 5.2 | 0.04 | 0.14 | 0.01 | 83 | 1012.8 |
| 20260506220914 | 59 | 116 | 2.6 | 3.5 | 0.03 | 0.13 | 0.01 | 82 | 1012.7 |
| 20260506220004 | 60 | 125 | 2.6 | 3.5 | 0.02 | 0.13 | 0.00 | 82 | 1012.8 |
| 20260506215403 | 60 | 141 | 2.6 | 4.3 | 0.02 | 0.12 | 0.12 | 81 | 1012.7 |
| 20260506214518 | 60 | 163 | 2.6 | 4.3 | 0.01 | 0.11 | 0.12 | 80 | 1012.6 |
| 20260506213603 | 60 | 171 | 3.5 | 7.0 | 0.01 | 0.11 | 0.11 | 77 | 1012.9 |
| 20260506212703 | 61 | 173 | 4.3 | 7.8 | 0.00 | 0.10 | 0.10 | 75 | 1012.7 |
| 20260506211824 | 61 | 186 | 4.3 | 9.6 | 0.00 | 0.10 | 0.10 | 73 | 1012.6 |
| 20260506210924 | 62 | 184 | 4.3 | 8.7 | 0.00 | 0.10 | 0.10 | 71 | 1012.7 |
| 20260506210003 | 62 | 180 | 5.2 | 10.4 | 0.00 | 0.10 | 0.10 | 71 | 1012.5 |
| 20260506205404 | 62 | 169 | 4.3 | 7.8 | 0.00 | 0.10 | 0.10 | 72 | 1012.7 |
| 20260506204503 | 61 | 181 | 4.3 | 7.8 | 0.00 | 0.10 | 0.10 | 72 | 1012.4 |
| 20260506203603 | 61 | 184 | 4.3 | 8.7 | 0.00 | 0.10 | 0.10 | 72 | 1012.6 |
| 20260506202703 | 61 | 212 | 4.3 | 7.8 | 0.00 | 0.10 | 0.10 | 73 | 1012.5 |
| 20260506201803 | 62 | 193 | 4.3 | 8.7 | 0.00 | 0.10 | 0.10 | 72 | 1012.5 |
| 20260506200903 | 62 | 183 | 4.3 | 13.0 | 0.00 | 0.10 | 0.10 | 71 | 1012.3 |
| 20260506200014 | 62 | 161 | 6.1 | 13.0 | 0.00 | 0.10 | 0.10 | 70 | 1012.0 |
| 20260506195403 | 62 | 168 | 4.3 | 7.0 | 0.00 | 0.10 | 0.10 | 73 | 1012.3 |
| 20260506194503 | 62 | 172 | 4.3 | 9.6 | 0.00 | 0.10 | 0.10 | 73 | 1012.6 |
| 20260506193603 | 62 | 169 | 6.1 | 12.2 | 0.00 | 0.10 | 0.10 | 72 | 1012.3 |
| 20260506192710 | 62 | 177 | 6.1 | 10.4 | 0.00 | 0.10 | 0.10 | 72 | 1012.3 |
| 20260506191803 | 62 | 185 | 7.0 | 12.2 | 0.00 | 0.10 | 0.10 | 72 | 1012.1 |
| 20260506190904 | 62 | 180 | 6.1 | 10.4 | 0.00 | 0.10 | 0.10 | 71 | 1012.2 |
| 20260506190024 | 62 | 186 | 5.2 | 9.6 | 0.00 | 0.10 | 0.10 | 72 | 1011.8 |
| 20260506185424 | 62 | 189 | 6.1 | 13.0 | 0.00 | 0.10 | 0.10 | 71 | 1011.8 |
| 20260506184503 | 62 | 210 | 7.8 | 15.6 | 0.00 | 0.10 | 0.10 | 73 | 1011.9 |
| 20260506183603 | 63 | 206 | 7.8 | 14.8 | 0.00 | 0.10 | 0.10 | 71 | 1011.8 |
| 20260506182703 | 64 | 201 | 7.8 | 14.8 | 0.00 | 0.10 | 0.10 | 69 | 1011.4 |
| 20260506181806 | 64 | 193 | 7.0 | 12.2 | 0.00 | 0.10 | 0.10 | 65 | 1011.4 |
| 20260506180903 | 64 | 190 | 7.0 | 16.5 | 0.00 | 0.10 | 0.10 | 63 | 1011.4 |
| 20260506180004 | 64 | 184 | 6.1 | 11.3 | 0.00 | 0.10 | 0.10 | 63 | 1011.4 |
| 20260506175403 | 65 | 195 | 7.0 | 13.0 | 0.00 | 0.10 | 0.10 | 63 | 1011.4 |
| 20260506174504 | 65 | 194 | 7.0 | 14.8 | 0.00 | 0.10 | 0.10 | 63 | 1011.3 |
| 20260506173603 | 65 | 188 | 7.0 | 15.6 | 0.00 | 0.10 | 0.10 | 63 | 1011.3 |
| 20260506172703 | 65 | 191 | 5.2 | 10.4 | 0.00 | 0.10 | 0.10 | 65 | 1011.3 |
| 20260506171804 | 65 | 196 | 6.1 | 12.2 | 0.00 | 0.10 | 0.10 | 65 | 1011.3 |
| 20260506170903 | 65 | 203 | 7.0 | 12.2 | 0.00 | 0.10 | 0.10 | 65 | 1011.3 |
| 20260506170003 | 65 | 207 | 8.7 | 14.8 | 0.00 | 0.10 | 0.10 | 65 | 1011.1 |
| 20260506165403 | 65 | 208 | 9.6 | 15.6 | 0.00 | 0.10 | 0.10 | 65 | 1011.3 |
| 20260506164503 | 66 | 205 | 7.8 | 15.6 | 0.00 | 0.10 | 0.10 | 64 | 1011.4 |
| 20260506163603 | 66 | 215 | 7.8 | 16.5 | 0.00 | 0.10 | 0.10 | 65 | 1011.0 |
| 20260506162703 | 66 | 209 | 8.7 | 16.5 | 0.00 | 0.10 | 0.10 | 64 | 1011.2 |
| 20260506161824 | 66 | 212 | 7.8 | 13.9 | 0.00 | 0.10 | 0.10 | 64 | 1011.0 |
| 20260506160903 | 67 | 214 | 10.4 | 18.2 | 0.00 | 0.10 | 0.10 | 62 | 1011.1 |
| 20260506160004 | 67 | 210 | 9.6 | 17.4 | 0.00 | 0.10 | 0.10 | 61 | 1010.9 |
| 20260506155403 | 67 | 210 | 9.6 | 15.6 | 0.00 | 0.10 | 0.10 | 61 | 1011.1 |
| 20260506154503 | 68 | 202 | 8.7 | 15.6 | 0.00 | 0.10 | 0.10 | 60 | 1010.9 |
| 20260506153603 | 68 | 191 | 8.7 | 18.2 | 0.00 | 0.10 | 0.10 | 59 | 1010.9 |
| 20260506152704 | 68 | 196 | 8.7 | 16.5 | 0.00 | 0.10 | 0.10 | 59 | 1010.9 |
| 20260506151804 | 69 | 195 | 7.8 | 15.6 | 0.00 | 0.10 | 0.10 | 59 | 1010.9 |
| 20260506150903 | 68 | 203 | 7.8 | 14.8 | 0.00 | 0.10 | 0.10 | 59 | 1010.8 |
| 20260506150003 | 68 | 193 | 8.7 | 17.4 | 0.00 | 0.10 | 0.10 | 58 | 1010.9 |
| 20260506145403 | 68 | 193 | 7.8 | 13.0 | 0.00 | 0.10 | 0.10 | 57 | 1010.8 |
| 20260506144503 | 68 | 208 | 9.6 | 17.4 | 0.00 | 0.10 | 0.10 | 56 | 1010.7 |
| 20260506143604 | 69 | 190 | 7.8 | 14.8 | 0.00 | 0.10 | 0.10 | 54 | 1011.0 |
| 20260506142703 | 69 | 190 | 7.0 | 14.8 | 0.00 | 0.10 | 0.10 | 55 | 1011.0 |
| 20260506141824 | 69 | 193 | 7.8 | 14.8 | 0.00 | 0.10 | 0.10 | 55 | 1010.7 |
| 20260506140903 | 69 | 182 | 8.7 | 18.2 | 0.00 | 0.10 | 0.10 | 55 | 1010.9 |
| 20260506140003 | 68 | 173 | 9.6 | 18.2 | 0.00 | 0.10 | 0.10 | 56 | 1010.7 |
| 20260506135403 | 69 | 177 | 8.7 | 16.5 | 0.00 | 0.10 | 0.10 | 55 | 1010.9 |
| 20260506134506 | 69 | 196 | 8.7 | 16.5 | 0.00 | 0.10 | 0.10 | 54 | 1011.2 |
| 20260506133603 | 69 | 205 | 8.7 | 15.6 | 0.00 | 0.10 | 0.10 | 55 | 1011.2 |
| 20260506132703 | 69 | 195 | 8.7 | 19.1 | 0.00 | 0.10 | 0.10 | 55 | 1011.4 |
| 20260506131803 | 69 | 186 | 6.1 | 13.0 | 0.00 | 0.10 | 0.10 | 55 | 1011.5 |
| 20260506130903 | 68 | 188 | 8.7 | 16.5 | 0.00 | 0.10 | 0.10 | 55 | 1011.4 |
| 20260506130003 | 69 | 183 | 7.8 | 19.1 | 0.00 | 0.10 | 0.10 | 54 | 1011.7 |
| 20260506125403 | 68 | 176 | 10.4 | 19.1 | 0.00 | 0.10 | 0.10 | 52 | 1011.4 |
| 20260506124503 | 69 | 180 | 10.4 | 19.1 | 0.00 | 0.10 | 0.10 | 52 | 1011.4 |
| 20260506123603 | 69 | 185 | 8.7 | 17.4 | 0.00 | 0.10 | 0.10 | 52 | 1011.1 |
| 20260506122724 | 69 | 201 | 8.7 | 19.1 | 0.00 | 0.10 | 0.10 | 53 | 1011.5 |
| 20260506121803 | 69 | 197 | 8.7 | 19.1 | 0.00 | 0.10 | 0.10 | 55 | 1011.3 |
| 20260506120924 | 69 | 203 | 10.4 | 19.1 | 0.00 | 0.10 | 0.10 | 54 | 1011.3 |
| 20260506120024 | 68 | 216 | 11.3 | 19.1 | 0.00 | 0.10 | 0.10 | 54 | 1011.3 |
| 20260506115403 | 68 | 217 | 13.0 | 22.6 | 0.00 | 0.10 | 0.10 | 53 | 1011.5 |